CAPE
0 0 0 0 0 0 0 0 0 0 0 0 0 0 0 0 0 0 0 0 0 0 0 0 0 0 0 0 0 0 0 0 0 0 0 0 0 0 0 0 0 0 0 0
0 0 0 0 0 0 0 0 0 0 0 0 0 0 0 0 0 0 0 0 0 0 0 0 0 0 0 0 0 0 0 0 0 0 0 0 0 0 0 0 0 0 0 0
0 0 0 0 0 0 0 0 0 0 0 0 0 0 0 0 0 0 0 0 0 0 0 0 0 0 0 0 0 0 0 0 0 0 0 0 0 0 0 0 0 0 0 0
0 0 0 0 0 0 0 0 0 0 0 0 0 0 0 0 0 0 0 0 0 0 0 0 0 0 0 0 0 0 0 0 0 0 0 0 0 0 0 0 0 0 0 0
0 0 0 0 0 0 0 0 0 0 0 0 0 0 0 0 0 0 0 0 0 0 0 0 0 0 0 0 0 0 0 0 0 0 0 0 0 0 0 0 0 0 0 0
0 0 0 0 0 0 0 0 0 0 0 0 0 0 0 0 0 0 0 0 0 0 0 0 0 0 0 0 0 0 0 0 0 0 0 0 0 0 0 0 0 0 0 0
0 0 0 0 0 0 0 0 0 0 0 0 0 0 0 0 0 0 0 0 0 0 0 0 0 0 0 0 0 0 0 0 0 0 0 0 0 0 0 0 0 0 0 0
0 0 0 0 0 0 0 0 0 0 0 0 0 0 0 0 0 0 0 0 0 0 0 0 0 0 0 0 0 0 0 0 0 0 0 0 0 0 0 0 0 0 0 0
0 0 0 0 0 0 0 0 0 0 0 0 0 0 0 0 0 0 0 0 0 0 0 0 0 0 0 0 0 0 0 0 0 0 0 0 0 0 0 0 0 0 0 0
0 0 0 0 0 0 0 0 0 0 0 0 0 0 0 0 0 0 0 0 0 0 0 0 0 0 0 0 0 0 0 0 0 0 0 0 0 0 0 0 0 0 0 0
0 0 0 0 0 0 0 0 0 0 0 0 0 0 0 0 0 0 0 0 0 0 0 0 0 0 0 0 0 0 0 0 0 0 0 0 0 0 0 0 0 0 0 0
0 0 0 0 0 0 0 0 0 0 0 0 0 0 0 0 0 0 0 0 0 0 0 0 0 0 0 0 0 0 0 0 0 0 0 0 0 0 0 0 0 0 0 0
0 0 0 0 0 0 0 0 0 0 0 0 0 0 0 0 0 0 0 0 0 0 0 0 0 0 0 0 0 0 0 0 0 0 0 0 0 0 0 0 0 0 0 0
0 0 0 0 0 0 0 0 0 0 0 0 0 0 0 0 0 0 0 0 0 0 0 0 0 0 0 0 0 0 0 0 0 0 0 0 0 0 0 0 0 0 0 0
0 0 0 0 0 0 0 0 0 0 0 0 0 0 0 0 0 0 0 0 0 0 0 0 0 0 0 0 0 0 0 0 0 0 0 0 0 0 0 0 0 0 0 0
0 0 0 0 0 0 0 0 0 0 0 0 0 0 0 0 0 0 0 0 0 0 0 0 0 0 0 0 0 0 0 0 0 0 0 0 0 0 0 0 0 0 0 0
8 0 0 1 0 0 4 0 0 0 0 0 0 0 0 0 0 0 0 0 0 0 0 0 0 0 0 0 0 0 0 0 0 0 0 0 0 0 0 0 0 1 1 1
14 19 17 0 0 0 0 0 0 0 0 0 0 0 0 0 0 0 0 0 0 0 0 0 0 0 0 0 0 0 0 0 0 0 0 0 1 2 2 1 2 2 1 1
16 34 10 10 0 0 0 0 0 0 0 0 0 0 0 0 0 0 0 0 0 0 0 0 0 0 0 0 0 0 0 0 0 1 1 2 2 2 2 3 2 1 1 2
8 17 3 0 0 0 0 0 0 0 0 0 0 0 0 0 0 0 0 0 0 0 0 0 0 0 0 0 0 0 0 0 0 1 2 2 2 2 2 2 2 2 3 1
2 2 6 0 9 0 0 0 2 2 0 0 4 1 0 0 0 0 0 0 0 0 0 0 0 0 0 0 0 0 0 0 2 0 1 2 1 2 2 2 2 3 3 2
0 0 0 1 3 1 0 1 26 0 0 3 14 0 0 0 0 0 0 0 0 0 0 0 0 0 0 0 0 0 0 0 1 1 1 1 1 2 2 3 3 3 3 4
0 5 2 1 2 0 0 0 0 0 0 0 0 0 0 0 0 0 0 0 0 0 0 0 0 0 0 0 0 0 0 1 1 1 1 2 1 1 2 4 4 5 4 5
4 2 0 0 0 0 0 0 0 0 0 0 0 0 0 0 0 0 0 0 0 0 0 0 0 0 0 0 0 0 0 1 1 2 1 2 2 2 2 3 3 5 4 6
6 0 0 0 0 0 0 0 0 1 2 0 0 0 0 0 0 0 0 0 0 0 0 0 0 0 0 0 0 0 0 1 1 2 2 2 2 2 2 2 3 3 2 1
0 0 0 0 0 0 0 0 0 1 0 0 0 0 0 0 0 0 0 0 0 0 0 0 0 0 0 0 0 0 0 1 2 2 2 2 3 2 2 2 1 0 0 2
CIN
0 0 0 0 0 0 0 0 0 0 0 0 0 0 0 0 0 0 0 0 0 0 0 0 0 0 0 0 0 0 0 0 0 0 0 0 0 0 0 0 0 0 0 0
0 0 0 0 0 0 0 0 0 0 0 0 0 0 0 0 0 0 0 0 0 0 0 0 0 0 0 0 0 0 0 0 0 0 0 0 0 0 0 0 0 0 0 0
0 0 0 0 0 0 0 0 0 0 0 0 0 0 0 0 0 0 0 0 0 0 0 0 0 0 0 0 0 0 0 0 0 0 0 0 0 0 0 0 0 0 0 0
0 0 0 0 0 0 0 0 0 0 0 0 0 0 0 0 0 0 0 0 0 0 0 0 0 0 0 0 0 0 0 0 0 0 0 0 0 0 0 0 0 0 0 0
0 0 0 0 0 0 0 0 0 0 0 0 0 0 0 0 0 0 0 0 0 0 0 0 0 0 0 0 0 0 0 0 0 0 0 0 0 0 0 0 0 0 0 0
0 0 0 0 0 0 0 0 0 0 0 0 0 0 0 0 0 0 0 0 0 0 0 0 0 0 0 0 0 0 0 0 0 0 0 0 0 0 0 0 0 0 0 0
0 0 0 0 0 0 0 0 0 0 0 0 0 0 0 0 0 0 0 0 0 0 0 0 0 0 0 0 0 0 0 0 0 0 0 0 0 0 0 0 0 0 0 0
0 0 0 0 0 0 0 0 0 0 0 0 0 0 0 0 0 0 0 0 0 0 0 0 0 0 0 0 0 0 0 0 0 0 0 0 0 0 0 0 0 0 0 0
0 0 0 0 0 0 0 0 0 0 0 0 0 0 0 0 0 0 0 0 0 0 0 0 0 0 0 0 0 0 0 0 0 0 0 0 0 0 0 0 0 0 0 0
0 0 0 0 0 0 0 0 0 0 0 0 0 0 0 0 0 0 0 0 0 0 0 0 0 0 0 0 0 0 0 0 0 0 0 0 0 0 0 0 0 0 0 0
0 0 0 0 0 0 0 0 0 0 0 0 0 0 0 0 0 0 0 0 0 0 0 0 0 0 0 0 0 0 0 0 0 0 0 0 0 0 0 0 0 0 0 0
0 0 0 0 0 0 0 0 0 0 0 0 0 0 0 0 0 0 0 0 0 0 0 0 0 0 0 0 0 0 0 0 0 0 0 0 0 0 0 0 0 0 0 0
0 0 0 0 0 0 0 0 0 0 0 0 0 0 0 0 0 0 0 0 0 0 0 0 0 0 0 0 0 0 0 0 0 0 0 0 0 0 0 0 0 0 0 0
0 0 0 0 0 0 0 0 0 0 0 0 0 0 0 0 0 0 0 0 0 0 0 0 0 0 0 0 0 0 0 0 0 0 0 0 0 0 0 0 0 0 0 -1
0 0 0 0 0 0 0 0 0 0 0 0 0 0 0 0 0 0 0 0 0 0 0 0 0 0 0 0 0 0 0 0 0 0 0 0 0 0 0 0 -1 -1 0 0
0 0 0 0 0 0 0 0 0 0 0 0 0 0 0 0 0 0 0 0 0 0 0 0 0 0 0 0 0 0 0 0 0 0 0 0 0 0 0 0 0 0 0 0
-4 -1 0 0 0 0 -35 0 0 0 0 0 0 0 0 0 0 0 0 0 0 0 0 0 0 0 0 0 0 0 0 0 0 0 0 0 0 0 0 0 0 0 0 0
-4 -3 -7 0 0 0 0 0 0 0 0 0 0 0 0 0 0 0 0 0 0 0 0 0 0 0 0 0 0 0 0 0 0 0 0 0 0 0 0 0 0 0 0 0
-24 -8 -8 -2 0 0 0 0 0 0 0 0 0 0 0 0 0 0 0 0 0 0 0 0 0 0 0 0 0 0 0 0 0 0 0 0 0 0 0 0 0 0 0 0
-49 -30 -9 -1 0 0 0 0 0 0 0 0 0 0 0 0 0 0 0 0 0 0 0 0 0 0 0 0 0 0 0 0 0 0 0 0 0 0 0 0 0 0 0 0
-9 -11 -3 0 -2 -2 0 0 -5 -22 0 0 -59 -52 0 0 0 0 0 0 0 0 0 0 0 0 0 0 0 0 0 0 0 0 0 0 0 0 0 0 0 0 0 0
0 0 -1 -5 -8 -2 0 -7 -10 0 0 -112 -145 0 0 0 0 0 0 0 0 0 0 0 0 0 0 0 0 0 0 0 0 0 0 0 0 0 0 0 0 0 0 0
-1 -12 -5 -2 -16 0 0 0 0 0 -4 0 0 0 0 0 0 0 0 0 0 0 0 0 0 0 0 0 0 0 0 0 0 0 0 0 0 0 0 0 0 0 0 0
-2 0 0 0 0 0 0 0 0 0 -2 0 0 0 0 0 0 0 0 0 0 0 0 0 0 0 0 0 0 0 0 0 0 0 0 0 0 0 0 0 0 0 0 0
-4 0 0 0 0 0 0 0 0 0 -164 0 0 0 0 0 0 0 0 0 0 0 0 0 0 0 0 0 0 0 0 0 0 0 0 0 0 0 0 0 0 0 0 0
0 0 0 0 0 0 0 0 0 0 0 0 0 0 0 0 0 0 0 0 0 0 0 0 0 0 0 0 0 0 0 0 0 0 0 0 0 0 0 0 0 0 0 0
Wind_Speed
20 21 24 23 22 23 26 28 30 27 25 28 30 31 29 26 22 23 22 13 12 11 10 6 4 6 10 13 15 18 22 25 28 28 29 29 30 31 33 34 36 37 36 37
23 28 27 27 27 29 33 34 31 30 29 29 34 37 31 30 30 26 25 19 15 14 12 9 7 8 11 12 14 17 20 25 28 28 28 28 30 32 34 35 37 38 38 37
25 25 27 28 28 32 29 27 29 31 30 31 35 44 37 32 31 29 27 21 18 16 14 11 9 9 10 12 14 16 20 25 28 29 32 33 33 33 35 37 39 39 39 38
26 23 24 26 29 27 31 26 27 26 30 37 28 47 37 33 33 30 29 27 20 18 14 11 10 10 11 13 14 18 23 27 30 32 34 37 38 40 35 38 40 42 41 41
24 27 32 31 28 26 30 22 25 27 30 32 32 37 37 30 36 35 28 20 16 16 14 12 10 10 12 14 17 21 25 28 31 33 34 35 38 37 37 37 38 44 43 41
28 25 26 26 22 21 16 22 25 27 30 41 34 32 40 34 29 27 27 21 15 14 12 10 10 12 14 17 20 23 28 31 33 34 34 35 38 40 40 37 37 41 43 41
28 27 24 23 27 23 22 25 34 35 34 40 26 31 35 34 38 36 32 16 9 9 9 9 11 14 17 19 23 27 31 33 34 34 35 35 37 39 39 37 36 39 43 44
33 39 23 19 21 24 26 27 32 39 36 34 28 34 30 28 29 27 15 8 6 8 10 11 14 17 19 22 26 29 31 34 34 35 35 36 37 38 37 35 35 40 43 44
35 38 25 23 23 23 28 32 28 34 33 39 35 35 32 26 24 17 9 8 9 10 12 14 16 18 20 24 28 30 31 34 37 36 36 38 39 39 37 35 38 40 41 41
32 45 30 28 22 25 27 19 29 29 40 44 38 37 34 26 22 16 13 12 12 15 16 17 19 20 23 26 28 28 32 36 37 37 39 41 42 39 37 35 38 42 43 41
28 33 37 28 29 26 24 28 27 28 32 42 45 40 28 27 20 18 15 15 17 19 19 20 20 21 24 26 26 30 34 36 38 41 43 44 44 40 38 36 38 43 44 42
29 33 46 40 30 31 31 31 29 36 38 36 40 52 28 25 20 18 18 20 24 23 20 21 20 22 25 27 29 33 36 38 41 42 44 44 42 40 38 37 38 43 44 40
32 32 45 44 38 34 36 34 31 32 33 41 45 51 29 27 26 22 25 28 29 25 22 22 22 25 29 31 33 34 36 39 41 43 45 45 43 41 38 37 41 44 44 40
33 38 41 54 46 33 38 37 34 34 40 45 45 49 37 32 29 28 30 31 28 26 24 23 26 30 30 31 32 34 37 40 43 44 45 45 42 40 37 39 42 44 43 40
32 44 44 50 51 46 43 40 36 38 41 46 52 46 42 39 35 32 35 33 30 27 26 26 29 30 31 31 32 34 38 41 43 43 44 43 40 39 40 42 45 44 43 40
37 47 46 56 52 46 47 41 40 40 41 42 46 50 36 37 38 39 40 34 30 28 26 26 28 31 33 31 33 36 40 42 41 42 43 42 40 40 42 44 44 44 44 42
45 46 45 54 47 52 57 50 45 42 38 36 43 43 36 42 42 41 36 30 28 25 24 27 30 31 29 29 32 37 40 40 41 42 43 43 41 42 44 44 43 43 44 44
47 45 45 53 51 64 51 44 43 45 45 40 43 47 45 47 45 40 31 26 25 24 26 28 28 26 25 28 33 37 39 40 41 43 43 42 42 44 43 42 42 41 41 41
42 45 50 52 57 55 55 43 40 43 52 49 47 44 39 34 31 34 26 24 23 24 25 25 24 22 25 30 34 37 39 40 41 43 42 42 42 42 40 40 39 39 45 45
35 38 44 45 55 61 51 43 39 34 50 40 38 45 34 24 36 34 23 22 23 23 22 22 20 22 27 30 33 36 40 41 42 43 40 40 39 36 35 36 34 31 24 34
36 34 42 43 49 50 47 40 29 34 36 26 26 26 20 21 27 22 16 20 19 19 18 16 19 23 26 29 32 37 39 40 41 40 38 37 35 32 33 29 30 29 15 11
35 36 35 33 39 48 35 40 41 39 40 28 17 12 9 17 17 12 13 16 16 17 15 16 20 23 25 29 33 37 38 39 39 38 36 34 34 33 31 30 33 34 29 30
29 27 29 28 31 33 34 39 41 44 43 32 23 16 11 11 11 11 14 14 14 13 14 16 19 22 25 28 32 36 37 38 38 37 34 33 32 32 33 35 29 37 38 33
25 23 27 29 28 33 39 35 33 36 38 16 12 11 8 7 9 12 12 12 13 13 14 16 19 23 26 29 32 34 35 35 37 37 33 31 33 32 33 28 26 28 21 27
29 26 32 38 40 35 33 31 33 32 35 23 14 15 12 9 10 11 11 12 13 14 14 15 18 22 26 30 32 33 34 35 39 34 32 31 32 32 38 25 15 30 27 34
35 40 37 39 37 34 35 31 32 36 34 23 19 15 11 8 8 10 10 11 13 13 12 15 18 21 26 29 31 32 34 36 37 34 33 32 35 34 35 36 34 26 29 12
Wind_Direction
290 281 275 276 277 277 281 281 280 286 289 289 285 284 285 288 285 284 287 268 262 265 282 293 315 339 346 346 350 353 351 349 348 346 344 342 339 332 325 319 314 311 308 304
284 277 278 282 280 277 278 277 279 285 290 289 286 282 285 285 284 284 283 274 259 271 270 275 290 315 330 342 348 350 350 349 347 347 343 340 335 331 325 320 315 313 309 304
282 281 288 284 280 281 278 277 282 284 291 292 290 281 284 288 284 282 279 270 256 250 253 260 278 303 323 334 342 346 347 346 346 344 340 337 336 333 328 322 315 311 308 304
287 289 288 287 283 283 277 283 286 289 290 285 295 281 285 290 290 288 283 277 255 249 253 255 271 295 312 326 337 339 340 341 341 340 338 336 335 331 331 324 317 311 308 304
290 289 286 283 285 288 281 287 287 290 289 289 288 289 285 295 290 290 289 273 254 240 236 249 265 290 308 321 328 333 336 337 338 338 338 337 334 333 330 326 320 311 309 306
290 301 294 284 288 294 291 290 294 293 290 281 287 284 286 292 297 299 300 286 264 235 240 253 275 296 308 319 326 329 330 331 334 336 336 336 334 332 330 328 323 316 310 309
293 292 298 294 283 287 284 287 285 283 282 281 293 287 287 291 288 290 293 295 264 229 238 262 282 297 308 316 321 325 327 327 331 334 334 335 334 332 329 326 323 317 310 308
288 284 294 298 283 284 282 280 276 280 282 286 293 284 292 303 302 303 298 282 258 250 264 277 290 302 310 316 320 322 325 326 331 332 333 333 333 331 329 326 322 315 310 307
285 283 295 290 290 289 287 280 282 279 285 284 285 287 294 301 306 312 304 284 274 273 280 288 298 305 312 316 318 321 324 326 329 330 332 332 331 329 327 325 320 314 311 310
288 281 287 288 290 289 283 287 281 279 277 278 282 283 285 292 297 301 291 283 282 289 291 295 302 308 313 315 318 323 324 326 329 330 331 330 330 328 327 324 319 313 310 310
298 287 285 288 277 278 286 281 284 282 277 277 278 281 294 292 286 286 287 290 292 292 294 298 304 310 313 316 321 323 324 327 328 328 329 330 330 329 328 324 320 313 310 310
305 290 278 281 287 282 277 275 275 275 276 279 279 276 292 291 287 283 289 293 296 297 296 300 306 310 312 317 320 322 325 327 327 328 329 330 331 330 328 325 320 314 311 312
300 290 283 281 281 281 277 276 275 277 280 274 276 277 288 284 286 279 286 290 296 298 299 302 305 307 312 316 319 322 326 326 328 329 330 331 331 330 328 325 320 314 313 312
293 282 276 274 279 287 279 276 272 270 272 275 275 279 278 281 281 280 284 289 295 296 298 300 301 306 313 318 321 325 326 327 328 329 331 331 331 330 328 324 320 315 313 313
293 280 280 278 279 278 275 275 271 268 270 272 277 278 277 276 278 278 283 290 293 295 296 297 300 308 315 319 323 325 326 328 330 331 332 332 331 330 327 323 319 317 315 312
289 281 284 278 277 279 274 271 270 268 268 274 276 276 282 281 281 281 282 285 289 293 294 297 304 310 314 320 323 325 327 330 333 334 333 333 333 331 327 324 322 319 315 312
281 281 280 276 279 279 269 264 265 268 270 270 272 278 284 278 278 279 283 283 287 290 294 300 306 311 317 322 326 327 329 333 335 335 335 335 335 332 330 327 324 320 316 313
275 274 277 276 277 268 272 272 267 268 269 268 273 278 280 279 279 279 280 280 284 288 294 303 310 315 320 326 328 330 333 335 336 337 337 339 337 335 333 331 328 325 319 313
269 271 271 270 267 273 274 272 271 266 268 270 273 277 279 284 280 274 275 282 284 290 299 307 312 318 323 327 330 333 334 337 337 338 339 340 339 339 340 337 335 329 323 311
272 266 263 266 263 263 269 271 277 273 267 267 271 274 277 267 266 273 273 277 286 295 303 309 317 322 326 330 334 334 335 337 338 339 342 342 344 345 345 346 346 344 338 318
278 273 263 264 264 267 265 265 279 262 272 270 274 275 264 255 270 278 268 279 293 300 308 317 322 324 330 334 336 334 336 338 341 343 343 345 347 348 350 355 2 9 10 274
277 271 267 270 266 264 277 259 252 261 262 279 281 265 258 276 279 281 278 286 295 301 314 321 325 329 334 337 337 335 338 342 346 346 346 350 351 352 354 358 356 2 311 306
277 273 267 268 271 277 276 265 262 260 262 271 266 255 261 256 268 276 286 295 301 311 321 328 332 334 338 340 340 338 340 345 349 348 350 353 355 356 356 353 1 350 324 311
283 283 277 277 273 268 271 276 267 265 256 252 242 243 253 246 272 284 292 302 305 313 324 331 334 336 339 341 341 343 347 350 351 350 354 358 358 359 358 6 5 301 306 307
277 286 280 268 265 260 258 274 267 263 260 254 253 259 254 263 279 282 292 301 306 318 329 335 339 342 342 342 343 348 352 354 350 356 359 0 360 2 347 8 18 356 4 347
267 253 263 256 262 259 262 269 262 261 256 248 245 252 256 273 275 278 295 303 307 319 336 337 344 346 346 344 348 352 355 353 353 359 358 1 353 358 356 356 352 17 7 2